リニア彗星

216P/LINEAR (2024)

English version
Home page
Updated on October 8, 2023

---------------------------------------------------------------------

・ プロフィール

・ 軌道要素

Epoch 2024 Jan. 11.0 TT = JDT 2460320.5
T 2024 Jan. 6.86485 TT                                  MPCW
q   2.1270655            (2000.0)            P               Q
n   0.13007220     Peri.  151.73072     -0.87907998     -0.47667398
a   3.8578594      Node   359.79836     +0.40227357     -0.74124616
e   0.4486410      Incl.    9.06325     +0.25572321     -0.47258444
P   7.58
From 138 observations 2001 Feb. 1-2016 Apr. 27, mean residual 0".6.

・ 光度変化

        m1 = 2.0 + 5 logΔ + 45 log r

---------------------------------------------------------------------

軌道要素はM.P.E.C. 2016-K18に掲載されたものです。
光度グラフはComet for Windowsで作成したものです。

---------------------------------------------------------------------

Copyright(C) Seiichi Yoshida (comet@aerith.net). All rights reserved.